Location: Angwan Shehu
(11.2514°N, 7.4613°E)
Time: 08:03:13
(UTC+00:00)

Cosmos 1151 Rocket - Pass Details

Date: 14 November 2019
Orbit: 592 x 616 km, 82.5° (Epoch: 11 December)

Event Time Altitude Azimuth Distance (km) Brightness Sun altitude
Rises 17:43:39 0° 181° (S) 2,841 6.7 -10.3°
Reaches altitude 10° 17:45:51 10° 180° (S) 1,942 5.8 -10.8°
Maximum altitude 17:50:09 78° 94° (E) 622 2.9 -11.8°
Drops below altitude 10° 17:54:28 10° 8° (N) 1,956 5.4 -12.9°
Sets 17:56:42 0° 7° (N) 2,863 6.2 -13.4°
